Location: Oregon Trail
(41.1872°N, 102.0741°W)
Time: 10:24:31
(UTC+00:00)

Meteor PRIRODA - Pass Details

Date: 19 November 2019
Orbit: 490 x 512 km, 97.5° (Epoch: 12 December)

Event Time Altitude Azimuth Distance (km) Brightness Sun altitude
Rises 12:13:26 0° 3° (N) 2,595 7.2 -16.4°
Reaches altitude 10° 12:15:38 10° 354° (N) 1,703 6.1 -16.0°
Maximum altitude 12:18:59 35° 288° (WNW) 816 4.1 -15.4°
Drops below altitude 10° 12:22:18 10° 221° (SW) 1,682 6.0 -14.7°
Sets 12:24:28 0° 213° (SSW) 2,556 7.0 -14.3°
